Temp
21 22 23 24 25 24 24 22 23 22 22 21 20 19 18 17 16 16 15 15 15 15 15 15 14 14 13 13 13 13 13 13 12 12 12 12 12 12 11 12 12 12 12
21 21 22 24 24 23 23 22 22 22 20 20 19 18 17 16 16 15 15 15 15 15 16 15 14 13 13 13 13 13 13 13 12 12 12 11 11 11 11 11 11 12 12
21 22 23 24 23 23 23 21 21 20 19 19 18 17 16 16 15 15 15 15 15 15 14 14 14 13 13 13 13 13 13 12 12 12 11 11 11 11 11 11 11 12 12
21 22 23 24 24 23 21 20 20 19 19 18 16 17 16 15 15 15 14 14 14 15 14 14 13 13 13 13 13 13 12 12 12 11 11 11 11 11 12 12 11 12 12
21 22 23 23 22 21 20 19 18 17 17 17 17 15 15 15 15 14 15 15 14 14 14 13 13 13 13 13 13 13 13 12 12 12 11 11 11 11 11 11 12 12 12
21 22 21 20 19 19 18 17 17 17 16 15 15 15 15 15 14 15 15 14 14 14 13 13 13 13 13 13 13 12 13 13 12 12 12 12 11 11 11 12 12 10 10
19 20 20 19 18 18 17 17 16 16 15 15 15 15 14 15 15 15 14 14 14 13 13 13 13 13 13 13 13 12 12 12 12 13 13 12 12 12 12 12 11 11 11
17 19 19 18 18 17 17 16 16 15 15 15 15 15 15 15 14 14 14 14 13 13 13 13 13 13 13 13 13 13 12 12 12 11 12 12 12 12 12 12 11 11 11
18 18 18 18 18 17 16 16 16 15 14 15 15 15 15 15 14 14 14 13 13 13 13 12 12 12 12 13 13 13 12 12 12 12 11 11 11 10 11 10 10 10 10
17 17 17 17 17 17 16 15 14 15 15 15 14 14 14 14 14 13 13 13 13 13 13 12 12 12 12 12 13 13 13 12 12 11 10 11 10 10 9 10 10 10 10
16 16 16 16 17 16 15 14 14 15 14 14 14 14 14 14 13 13 13 13 12 13 12 12 12 12 12 13 12 12 12 12 12 11 10 10 10 9 9 9 9 10 9
15 15 17 14 15 14 15 14 14 14 14 14 14 14 13 13 12 12 13 12 12 12 12 12 12 12 12 12 11 11 11 11 11 10 10 10 10 9 9 9 9 9 9
13 15 14 14 15 15 15 14 14 14 14 14 13 13 13 12 12 12 12 11 11 11 11 11 10 10 10 10 10 10 10 9 9 9 9 9 9 9 9 9 10 9 9
14 14 14 15 15 14 14 14 14 14 14 13 13 13 12 11 10 11 11 11 10 10 11 11 10 10 10 10 10 10 10 9 9 9 9 10 9 9 9 9 10 10 9
14 15 15 15 14 14 14 14 14 14 14 13 13 13 12 10 10 10 10 11 11 10 11 10 10 10 10 10 10 10 10 10 10 9 10 10 9 9 9 9 10 10 10
15 15 14 14 14 14 14 13 13 13 12 12 12 11 11 10 10 10 10 10 10 10 10 10 10 9 9 10 9 10 10 10 9 10 10 10 10 10 10 9 9 9 10
15 15 14 14 14 14 13 13 12 11 11 12 11 10 10 9 9 9 9 9 9 9 10 9 10 9 9 9 9 9 9 9 9 9 9 10 9 9 9 9 9 10 9
14 14 14 14 14 14 13 13 12 12 11 11 10 9 9 8 9 9 9 9 9 9 9 9 9 9 9 9 9 9 8 9 9 9 9 9 9 9 9 9 10 10 10
14 14 14 14 14 13 13 12 12 11 11 10 9 9 8 9 9 9 9 9 9 9 9 9 9 8 8 8 8 9 9 9 9 9 9 9 9 9 9 10 10 10 11
14 14 14 13 13 13 12 12 12 11 10 10 9 8 8 9 9 9 9 9 9 9 9 9 9 9 9 9 9 9 10 10 9 9 9 10 10 10 10 10 11 11 11
14 13 13 12 12 12 12 11 11 11 11 9 9 9 9 9 9 10 10 10 10 10 10 10 10 9 9 9 9 9 10 10 10 10 10 11 11 11 11 11 11 11 11
14 13 13 12 12 11 11 11 11 11 10 10 9 9 9 9 10 10 10 11 11 10 10 11 11 10 10 10 10 10 10 10 10 11 11 11 11 11 12 12 12 12 12
14 13 12 12 12 12 12 11 11 10 10 9 9 9 9 10 10 10 10 11 11 11 11 11 11 11 12 11 11 11 11 11 12 12 11 12 12 12 12 12 12 11 11
14 13 13 12 12 11 11 11 11 10 9 9 9 9 9 10 10 10 10 10 10 11 11 11 11 11 12 12 12 12 12 12 12 11 11 12 12 12 11 10 10 10 10
14 14 13 12 12 11 10 10 9 9 10 10 9 9 9 9 9 9 10 10 9 9 9 9 9 10 10 10 10 10 10 10 10 10 10 10 10 10 10 10 9 9 8
15 14 13 13 12 11 11 10 9 9 9 9 9 9 9 9 9 9 9 9 9 9 8 9 8 8 8 8 8 8 8 9 9 8 8 8 9 8 7 7 7 7 7
Height
1377 1379 1381 1385 1389 1392 1396 1401 1406 1410 1413 1417 1420 1424 1427 1431 1433 1436 1440 1443 1446 1449 1451 1453 1455 1457 1460 1462 1464 1466 1467 1468 1469 1471 1472 1472 1473 1473 1473 1476 1480 1484 1487
1370 1372 1373 1376 1380 1384 1389 1394 1399 1403 1406 1411 1415 1418 1424 1427 1430 1433 1437 1440 1443 1446 1449 1451 1453 1455 1457 1459 1461 1463 1464 1465 1467 1468 1469 1470 1471 1473 1475 1476 1479 1483 1487
1361 1364 1365 1368 1372 1377 1381 1388 1393 1397 1402 1406 1410 1415 1421 1424 1427 1430 1434 1438 1441 1444 1446 1448 1451 1453 1455 1457 1459 1461 1462 1463 1464 1466 1467 1469 1472 1474 1476 1478 1481 1483 1486
1352 1355 1357 1361 1365 1370 1376 1383 1388 1393 1397 1401 1407 1412 1417 1421 1424 1428 1432 1435 1439 1442 1444 1447 1449 1451 1453 1455 1457 1459 1460 1462 1463 1464 1466 1468 1471 1473 1477 1479 1481 1483 1486
1343 1346 1351 1356 1361 1366 1373 1379 1384 1389 1393 1399 1404 1409 1415 1419 1423 1427 1430 1433 1437 1440 1442 1445 1447 1449 1451 1453 1455 1457 1459 1460 1461 1463 1465 1468 1470 1472 1475 1478 1481 1482 1485
1335 1338 1345 1352 1358 1364 1370 1376 1380 1387 1392 1397 1404 1409 1413 1418 1422 1426 1429 1432 1436 1438 1440 1442 1444 1446 1448 1451 1453 1456 1458 1460 1461 1463 1465 1467 1469 1472 1475 1478 1480 1482 1485
1328 1333 1340 1349 1356 1362 1368 1374 1379 1385 1392 1398 1403 1408 1413 1417 1421 1425 1429 1432 1434 1436 1437 1439 1441 1443 1445 1449 1451 1454 1457 1459 1461 1464 1465 1467 1469 1471 1474 1477 1480 1482 1484
1326 1329 1339 1347 1354 1361 1367 1372 1380 1386 1393 1399 1404 1409 1413 1417 1421 1424 1427 1430 1432 1433 1434 1436 1437 1440 1443 1446 1450 1452 1455 1458 1461 1464 1467 1469 1470 1472 1475 1477 1479 1483 1485
1327 1329 1335 1342 1351 1358 1364 1371 1380 1387 1394 1399 1405 1409 1414 1417 1420 1423 1425 1427 1429 1431 1432 1433 1435 1438 1442 1445 1448 1452 1454 1457 1460 1463 1466 1469 1470 1472 1475 1477 1479 1482 1485
1323 1330 1335 1341 1351 1358 1364 1373 1382 1388 1394 1400 1405 1410 1413 1416 1419 1421 1423 1425 1427 1429 1431 1433 1435 1438 1441 1443 1448 1450 1453 1456 1459 1462 1465 1467 1469 1473 1475 1477 1480 1482 1484
1321 1327 1334 1341 1352 1356 1366 1376 1382 1389 1394 1401 1406 1409 1413 1415 1417 1420 1422 1424 1426 1428 1431 1433 1436 1438 1441 1444 1447 1450 1453 1455 1457 1461 1464 1466 1469 1472 1475 1477 1481 1485 1486
1321 1328 1334 1344 1354 1362 1369 1377 1384 1390 1396 1401 1405 1409 1412 1414 1417 1419 1421 1423 1425 1427 1430 1433 1436 1439 1442 1444 1447 1451 1453 1455 1457 1459 1462 1465 1469 1472 1476 1479 1481 1485 1487
1329 1329 1338 1350 1357 1366 1371 1377 1385 1392 1397 1401 1405 1409 1411 1414 1416 1418 1421 1423 1425 1427 1430 1434 1437 1440 1443 1445 1448 1451 1453 1454 1457 1459 1462 1466 1469 1473 1476 1479 1481 1483 1486
1316 1339 1344 1353 1361 1368 1374 1382 1388 1393 1397 1401 1405 1408 1410 1413 1416 1418 1420 1423 1425 1428 1431 1434 1438 1441 1444 1447 1450 1452 1454 1456 1458 1460 1463 1466 1469 1472 1475 1478 1480 1482 1484
1334 1341 1348 1357 1362 1367 1376 1384 1390 1395 1399 1403 1405 1407 1409 1413 1415 1418 1421 1423 1425 1428 1431 1434 1438 1441 1444 1447 1450 1452 1454 1456 1458 1461 1463 1466 1469 1472 1474 1476 1479 1481 1483
1337 1344 1351 1356 1363 1371 1379 1386 1391 1397 1401 1404 1406 1409 1410 1413 1416 1418 1421 1424 1426 1429 1432 1435 1438 1442 1445 1448 1450 1452 1454 1456 1459 1461 1463 1466 1469 1472 1474 1475 1477 1479 1480
1339 1344 1351 1358 1366 1374 1381 1386 1391 1397 1401 1405 1407 1409 1411 1413 1416 1420 1423 1425 1428 1431 1433 1436 1440 1442 1445 1448 1451 1453 1454 1456 1459 1461 1463 1466 1469 1470 1472 1473 1476 1478 1480
1342 1349 1355 1363 1370 1377 1382 1388 1393 1397 1401 1405 1408 1410 1413 1416 1418 1421 1424 1427 1429 1432 1434 1439 1442 1444 1446 1449 1451 1453 1454 1456 1459 1462 1464 1466 1469 1471 1472 1474 1476 1478 1479
1347 1355 1361 1367 1374 1379 1384 1389 1393 1397 1401 1405 1408 1412 1415 1419 1422 1425 1427 1429 1432 1434 1437 1440 1443 1445 1447 1450 1451 1453 1455 1457 1458 1461 1463 1466 1469 1471 1472 1474 1475 1477 1479
1353 1359 1364 1370 1375 1380 1384 1389 1393 1398 1403 1406 1410 1414 1418 1422 1426 1428 1430 1432 1435 1438 1440 1443 1445 1447 1449 1451 1452 1454 1455 1457 1459 1460 1463 1466 1469 1471 1472 1474 1476 1477 1479
1356 1363 1367 1372 1376 1380 1384 1390 1395 1399 1404 1408 1413 1419 1423 1426 1429 1431 1434 1436 1438 1440 1442 1444 1446 1448 1450 1451 1453 1456 1457 1459 1461 1463 1465 1467 1469 1471 1473 1474 1475 1476 1477
1360 1364 1369 1373 1378 1382 1386 1391 1396 1401 1406 1410 1416 1421 1426 1429 1432 1434 1437 1439 1442 1443 1445 1446 1449 1451 1453 1455 1456 1458 1459 1460 1462 1464 1467 1469 1471 1472 1473 1473 1474 1474 1474
1363 1367 1372 1376 1380 1384 1389 1394 1399 1404 1408 1413 1418 1423 1428 1432 1435 1438 1440 1442 1444 1446 1447 1449 1451 1453 1455 1457 1458 1460 1462 1462 1464 1465 1467 1468 1469 1470 1470 1470 1470 1470 1470
1367 1370 1373 1378 1382 1387 1392 1396 1401 1406 1411 1415 1420 1425 1430 1435 1438 1440 1442 1444 1446 1447 1449 1451 1453 1454 1456 1458 1459 1460 1462 1463 1464 1465 1466 1467 1467 1467 1466 1466 1466 1467 1466
1370 1373 1376 1380 1385 1389 1393 1398 1403 1408 1413 1418 1422 1428 1432 1436 1440 1442 1444 1446 1447 1449 1451 1453 1455 1456 1457 1458 1460 1461 1462 1462 1463 1464 1465 1466 1466 1466 1465 1466 1466 1466 1467
1372 1376 1379 1382 1387 1391 1397 1401 1407 1412 1416 1420 1425 1430 1434 1438 1441 1444 1446 1448 1450 1452 1453 1455 1456 1458 1459 1460 1462 1462 1463 1464 1464 1465 1466 1467 1466 1466 1468 1468 1466 1464 1466
Wind_Speed
29 26 27 33 31 32 35 38 35 31 28 24 22 22 20 21 19 16 15 15 14 16 14 11 11 12 12 11 10 11 11 10 10 9 8 7 5 7 9 16 19 18 13
28 27 27 31 35 32 32 37 34 31 24 22 20 21 21 19 17 17 16 17 17 15 13 13 12 12 12 10 9 9 8 8 8 9 9 8 5 9 11 13 17 16 14
23 27 24 28 27 29 32 32 29 24 23 21 20 22 19 18 16 15 17 16 15 12 11 12 12 12 11 10 9 8 9 7 7 8 12 11 13 12 14 15 16 15 15
23 26 22 23 22 23 24 24 22 22 22 22 22 20 22 19 18 18 17 14 12 11 12 12 11 10 10 9 9 10 10 6 6 8 10 14 18 17 14 16 16 14 15
28 24 23 23 23 24 23 21 21 21 20 23 24 22 21 20 19 19 15 12 11 12 13 14 12 10 8 8 9 11 11 7 7 10 13 15 18 17 18 17 17 17 17
27 25 24 25 27 24 22 23 22 23 23 22 23 24 20 20 18 12 10 10 11 11 11 13 14 12 11 10 11 10 8 6 9 12 14 15 17 18 18 17 17 18 18
23 24 25 29 27 25 27 23 24 25 26 26 24 24 23 17 16 12 11 10 8 9 11 13 14 15 13 13 13 14 10 7 4 7 11 14 15 16 17 18 19 20 19
26 29 29 27 26 28 28 30 29 29 28 25 23 21 19 16 14 12 11 10 10 10 10 10 11 13 15 16 16 16 13 11 9 9 9 4 10 13 14 16 19 18 18
27 27 27 27 29 32 36 31 31 30 27 24 22 19 17 15 12 11 11 10 8 8 7 8 9 12 15 15 15 16 14 13 12 11 10 8 6 8 13 17 20 20 22
26 24 26 28 33 35 35 37 31 24 26 22 19 18 13 10 11 11 9 8 8 7 8 10 11 10 12 12 15 15 13 14 14 14 13 11 10 10 9 14 19 21 21
28 28 29 30 36 35 34 31 24 26 23 21 17 13 11 10 10 9 9 9 8 8 10 11 12 13 11 12 12 9 9 11 13 12 13 13 13 12 12 14 15 12 17
30 34 31 35 34 32 28 29 27 24 23 19 14 13 11 10 10 9 9 8 8 8 13 12 13 13 12 13 12 10 9 9 10 11 15 17 16 13 13 14 14 13 12
27 29 38 34 29 30 31 28 26 23 18 15 13 12 12 12 11 11 10 9 9 10 15 13 10 11 12 13 10 8 6 9 10 13 16 16 13 13 14 15 15 15 13
42 42 37 33 33 32 30 27 22 18 16 14 13 12 12 12 11 10 9 11 11 14 14 11 11 14 13 11 10 10 7 4 9 12 13 12 13 14 15 16 15 14 13
44 37 35 35 33 33 29 23 18 15 12 10 10 10 12 13 12 10 9 10 11 14 14 15 16 15 14 13 12 10 9 7 9 12 12 12 14 14 13 15 15 14 13
41 37 35 33 33 29 24 22 18 17 14 12 10 6 9 10 12 12 11 10 10 12 14 17 16 13 13 13 12 11 10 9 11 11 12 12 14 13 13 11 12 12 15
35 34 34 31 30 26 24 23 23 19 15 13 10 9 11 13 12 11 10 10 11 12 13 16 14 13 13 13 11 8 8 10 11 9 12 12 11 10 11 12 13 10 14
30 31 29 30 27 26 23 23 22 23 20 17 15 16 14 15 13 13 13 13 12 11 15 13 12 12 13 11 9 7 9 11 11 11 11 11 11 8 7 9 10 9 9
30 29 27 26 24 23 22 23 22 20 22 20 20 18 18 18 18 15 13 11 13 12 13 11 9 10 12 9 10 8 9 11 11 11 11 12 10 8 5 6 7 7 8
25 26 24 23 23 22 22 22 20 26 23 21 23 25 25 25 20 17 17 16 15 15 14 13 12 11 10 8 7 8 8 9 10 11 12 12 10 9 8 9 9 7 6
23 22 19 20 22 22 22 22 25 26 23 24 27 28 27 22 19 16 13 12 12 11 11 10 9 10 11 10 10 9 8 8 9 10 11 11 11 10 8 6 6 7 9
23 23 22 22 23 23 23 27 29 24 25 28 31 28 22 17 17 17 14 13 13 12 11 12 12 11 11 10 10 10 10 11 10 11 9 8 7 6 6 8 8 10 13
22 22 24 24 24 24 25 27 26 25 28 31 30 28 22 17 14 13 10 11 12 11 11 12 12 11 9 8 8 8 8 9 8 7 6 7 8 10 12 15 16 17 18
23 25 27 26 24 25 25 25 27 28 30 31 29 26 22 17 14 11 9 10 9 10 9 10 9 8 7 8 7 6 7 7 7 8 9 11 12 11 8 8 6 4 7
27 28 27 27 25 27 28 31 32 30 30 29 28 25 21 16 12 9 10 11 12 13 14 13 12 12 11 10 8 6 6 6 4 3 3 3 2 2 3 3 2 1 1
27 26 27 26 27 27 27 29 31 30 29 27 26 24 20 16 14 14 14 15 16 17 17 17 17 15 14 12 11 9 8 7 7 6 4 3 3 4 4 1 0 1 3
Wind_Direction
265 267 252 243 240 236 243 244 243 251 252 238 233 228 222 216 213 218 209 203 208 209 210 218 218 217 219 220 229 236 246 250 245 245 229 219 225 268 205 205 191 190 187
262 262 248 238 234 231 236 237 242 247 231 220 226 216 211 216 218 199 200 202 206 206 214 215 209 211 220 215 216 225 230 231 239 231 216 201 192 161 157 155 170 185 189
257 255 232 225 224 227 231 237 236 212 209 213 211 207 210 216 194 200 205 203 205 206 208 212 219 215 208 211 215 225 215 226 229 228 212 198 174 159 160 158 164 170 173
241 238 215 213 211 220 218 205 200 204 213 210 196 202 211 199 191 193 191 189 193 204 212 210 211 215 222 219 226 218 215 228 227 209 199 185 182 171 174 173 170 169 168
230 217 206 210 202 188 189 196 201 197 188 193 196 193 183 182 186 179 179 196 212 205 205 210 212 215 226 221 223 212 214 218 204 185 180 187 184 185 182 176 175 169 168
215 203 197 188 179 181 187 185 179 183 186 183 176 170 176 174 173 171 183 176 184 199 212 219 223 226 220 215 208 206 217 227 207 193 190 188 178 181 180 179 180 168 155
198 187 181 179 181 184 178 178 174 168 163 166 167 168 168 168 165 173 183 199 212 227 234 231 229 223 216 203 201 195 200 201 217 224 199 195 193 193 187 181 180 181 174
186 169 174 180 187 176 175 163 162 159 156 157 163 162 160 165 179 191 205 217 235 241 231 221 216 204 199 198 198 193 191 192 185 203 214 245 231 212 201 190 180 180 165
183 175 179 186 184 179 166 161 160 153 157 158 160 164 175 180 188 203 216 221 223 214 204 199 195 194 196 186 193 201 196 191 183 188 184 190 187 201 204 190 180 175 170
179 182 184 181 183 174 163 154 151 151 157 161 165 163 168 188 198 200 201 201 196 187 170 168 169 173 185 187 197 198 203 194 191 190 188 183 176 194 218 204 192 186 183
171 174 174 167 170 155 152 154 153 157 158 161 162 165 183 188 188 184 181 177 180 177 177 166 169 178 191 178 168 181 201 206 194 194 191 185 182 187 180 174 190 203 199
159 162 161 151 147 148 150 155 157 160 164 164 170 178 176 172 169 167 168 172 173 181 175 171 168 166 163 155 146 159 171 188 197 197 185 182 184 183 179 182 187 197 206
170 156 148 146 147 153 154 156 162 166 167 170 176 174 163 161 165 166 168 166 145 140 154 157 166 155 162 150 150 149 155 164 171 170 173 178 181 183 189 189 191 199 217
149 153 145 149 154 155 155 160 164 169 172 178 176 171 167 164 166 161 162 164 169 165 168 166 174 163 159 162 163 166 162 151 166 162 163 166 176 185 190 193 194 198 210
154 150 153 157 156 155 158 163 171 167 164 157 157 161 167 166 160 153 159 171 176 177 173 167 163 167 169 168 170 171 171 162 163 173 178 181 185 183 183 192 197 197 206
151 158 157 155 155 155 159 161 156 144 132 119 120 111 145 151 149 155 158 155 154 158 165 165 159 165 169 172 175 172 175 175 172 178 184 186 188 194 202 197 202 218 205
151 151 151 150 156 159 160 157 152 145 139 133 127 121 129 140 143 150 154 167 170 169 171 162 159 157 164 171 172 175 179 173 174 176 178 184 194 196 199 210 199 209 209
150 151 153 157 163 162 160 159 158 154 146 138 128 128 131 128 130 131 135 148 151 172 155 158 162 153 162 166 170 181 172 172 172 179 182 181 186 192 205 209 212 204 208
154 161 162 162 162 162 162 162 163 158 151 143 135 127 121 124 121 124 129 133 135 133 136 146 148 151 165 166 170 175 167 175 178 175 179 182 189 197 197 169 166 182 189
155 159 160 161 163 165 170 170 158 154 148 141 136 129 125 120 111 114 117 118 121 122 120 125 128 132 139 141 146 151 156 161 170 175 176 180 184 184 168 172 175 192 211
150 160 170 162 158 164 168 165 158 154 145 141 137 132 126 115 116 118 116 114 112 115 118 125 133 141 141 140 133 124 123 133 138 145 154 163 174 175 182 193 221 259 276
145 150 152 151 149 149 152 155 158 149 143 142 139 137 139 127 111 113 106 106 112 108 110 133 133 136 137 139 136 133 135 134 140 153 171 188 207 225 243 259 256 269 273
144 144 143 141 141 144 149 155 152 146 144 144 147 147 148 143 129 124 123 115 113 117 114 121 134 137 137 139 142 146 151 149 156 175 197 221 247 256 262 261 259 265 271
146 143 140 140 143 146 148 149 146 147 148 153 155 154 153 149 147 145 137 130 131 133 135 137 139 140 149 166 178 182 194 206 214 226 234 239 258 266 290 270 256 271 293
142 145 146 145 146 147 149 149 151 153 154 157 158 158 159 161 155 141 132 128 127 128 126 123 117 113 112 116 123 133 160 178 177 173 174 185 184 191 218 236 240 267 305
150 152 150 151 155 154 153 153 152 155 156 157 161 164 165 161 152 140 135 133 131 127 124 121 116 114 111 108 110 114 123 133 128 122 111 127 139 102 73 68 186 35 1